QPF
0.07 0.07 0.08 0.09 0.10 0.09 0.10 0.11 0.13 0.12 0.09 0.07 0.05 0.04 0.04 0.05 0.06 0.06 0.06 0.07 0.08 0.10 0.11 0.10 0.08 0.09 0.13 0.17 0.17 0.17 0.15 0.14 0.14 0.14 0.15 0.16 0.17 0.21
0.07 0.07 0.07 0.07 0.08 0.09 0.11 0.11 0.10 0.11 0.10 0.08 0.05 0.04 0.03 0.04 0.05 0.05 0.06 0.07 0.08 0.09 0.10 0.11 0.11 0.09 0.12 0.17 0.16 0.13 0.09 0.07 0.09 0.12 0.13 0.13 0.14 0.15
0.09 0.08 0.07 0.06 0.07 0.10 0.12 0.12 0.10 0.09 0.08 0.06 0.04 0.03 0.03 0.03 0.04 0.05 0.07 0.08 0.10 0.12 0.13 0.12 0.13 0.13 0.12 0.13 0.15 0.14 0.10 0.07 0.07 0.08 0.10 0.10 0.12 0.15
0.10 0.09 0.07 0.07 0.07 0.08 0.10 0.09 0.08 0.06 0.05 0.04 0.03 0.02 0.02 0.02 0.03 0.04 0.05 0.07 0.08 0.12 0.13 0.12 0.12 0.12 0.12 0.10 0.11 0.14 0.13 0.10 0.08 0.07 0.07 0.08 0.10 0.14
0.09 0.09 0.08 0.08 0.08 0.07 0.07 0.07 0.07 0.05 0.04 0.03 0.02 0.01 0.02 0.02 0.03 0.06 0.05 0.05 0.06 0.09 0.10 0.11 0.10 0.09 0.10 0.11 0.09 0.10 0.10 0.10 0.09 0.07 0.06 0.07 0.09 0.12
0.08 0.07 0.06 0.07 0.07 0.06 0.06 0.06 0.05 0.04 0.03 0.02 0.02 0.02 0.02 0.03 0.04 0.06 0.07 0.07 0.07 0.07 0.09 0.11 0.11 0.10 0.10 0.11 0.11 0.08 0.07 0.08 0.08 0.07 0.06 0.06 0.07 0.11
0.06 0.07 0.07 0.06 0.06 0.05 0.04 0.04 0.03 0.03 0.02 0.02 0.02 0.03 0.04 0.05 0.06 0.08 0.07 0.07 0.08 0.06 0.07 0.10 0.10 0.10 0.11 0.12 0.12 0.09 0.07 0.07 0.07 0.07 0.06 0.06 0.08 0.10
0.06 0.07 0.07 0.07 0.07 0.06 0.04 0.03 0.03 0.03 0.02 0.02 0.02 0.04 0.05 0.06 0.08 0.07 0.05 0.05 0.07 0.07 0.07 0.09 0.09 0.11 0.13 0.15 0.14 0.10 0.07 0.05 0.05 0.05 0.06 0.07 0.08 0.10
0.06 0.06 0.05 0.05 0.05 0.04 0.04 0.03 0.03 0.02 0.02 0.03 0.03 0.03 0.05 0.06 0.08 0.07 0.04 0.04 0.06 0.06 0.06 0.08 0.09 0.12 0.13 0.15 0.16 0.14 0.09 0.06 0.05 0.04 0.06 0.07 0.08 0.08
0.05 0.05 0.04 0.04 0.04 0.03 0.02 0.02 0.02 0.02 0.02 0.02 0.03 0.04 0.05 0.05 0.06 0.05 0.04 0.04 0.05 0.05 0.05 0.06 0.07 0.08 0.10 0.14 0.16 0.15 0.12 0.09 0.07 0.06 0.06 0.07 0.08 0.07
0.04 0.03 0.02 0.02 0.03 0.03 0.02 0.02 0.02 0.01 0.02 0.03 0.04 0.04 0.04 0.06 0.06 0.04 0.04 0.04 0.04 0.04 0.03 0.03 0.04 0.06 0.10 0.15 0.19 0.19 0.15 0.11 0.09 0.08 0.07 0.07 0.07 0.06
0.02 0.02 0.02 0.03 0.02 0.02 0.01 0.01 0.02 0.02 0.02 0.02 0.03 0.03 0.03 0.04 0.05 0.04 0.03 0.03 0.03 0.03 0.02 0.02 0.03 0.06 0.10 0.14 0.16 0.17 0.17 0.14 0.11 0.09 0.09 0.09 0.08 0.06
0.02 0.02 0.02 0.02 0.02 0.02 0.01 0.01 0.01 0.02 0.02 0.02 0.02 0.02 0.02 0.02 0.03 0.03 0.02 0.02 0.02 0.02 0.03 0.03 0.04 0.05 0.08 0.12 0.14 0.14 0.13 0.12 0.09 0.09 0.09 0.09 0.09 0.07
0.02 0.02 0.02 0.02 0.02 0.01 0.01 0.01 0.02 0.02 0.02 0.02 0.02 0.01 0.01 0.02 0.03 0.02 0.02 0.02 0.02 0.02 0.02 0.02 0.04 0.05 0.07 0.09 0.12 0.13 0.12 0.11 0.08 0.06 0.06 0.07 0.07 0.06
0.01 0.01 0.02 0.01 0.01 0.01 0.01 0.01 0.02 0.02 0.02 0.02 0.01 0.01 0.02 0.02 0.03 0.03 0.02 0.02 0.02 0.01 0.02 0.02 0.03 0.05 0.07 0.08 0.08 0.09 0.10 0.10 0.08 0.06 0.04 0.05 0.05 0.04
0.01 0.01 0.02 0.01 0.01 0.01 0.01 0.01 0.02 0.02 0.03 0.02 0.02 0.02 0.03 0.03 0.03 0.03 0.03 0.03 0.02 0.02 0.02 0.03 0.04 0.05 0.07 0.09 0.08 0.08 0.07 0.08 0.08 0.06 0.04 0.04 0.04 0.03
0.01 0.01 0.01 0.01 0.01 0.01 0.01 0.01 0.02 0.01 0.02 0.02 0.02 0.03 0.03 0.02 0.02 0.02 0.03 0.03 0.02 0.03 0.03 0.04 0.05 0.06 0.07 0.08 0.08 0.08 0.08 0.07 0.07 0.05 0.04 0.04 0.04 0.03
0.01 0.01 0.01 0.01 0.02 0.01 0.01 0.01 0.01 0.01 0.02 0.02 0.02 0.02 0.02 0.02 0.02 0.02 0.02 0.02 0.02 0.03 0.03 0.03 0.04 0.04 0.05 0.07 0.08 0.07 0.07 0.07 0.06 0.04 0.04 0.04 0.04 0.03
0.01 0.01 0.01 0.02 0.01 0.01 0.01 0.01 0.01 0.01 0.01 0.02 0.02 0.02 0.02 0.02 0.02 0.01 0.01 0.02 0.02 0.02 0.02 0.02 0.03 0.04 0.04 0.05 0.07 0.07 0.07 0.06 0.06 0.04 0.04 0.03 0.03 0.03
0.02 0.02 0.02 0.02 0.02 0.02 0.02 0.02 0.02 0.02 0.02 0.02 0.01 0.01 0.02 0.02 0.02 0.02 0.02 0.02 0.02 0.02 0.02 0.02 0.02 0.03 0.04 0.05 0.06 0.07 0.07 0.06 0.05 0.04 0.03 0.03 0.03 0.03
0.03 0.02 0.02 0.02 0.02 0.02 0.02 0.02 0.02 0.02 0.02 0.02 0.02 0.01 0.01 0.02 0.02 0.02 0.02 0.02 0.02 0.02 0.02 0.02 0.02 0.03 0.04 0.05 0.06 0.07 0.07 0.06 0.05 0.04 0.03 0.03 0.03 0.04
0.03 0.03 0.02 0.02 0.02 0.02 0.02 0.03 0.03 0.03 0.02 0.02 0.02 0.01 0.01 0.02 0.02 0.02 0.02 0.02 0.02 0.02 0.02 0.03 0.02 0.03 0.04 0.05 0.05 0.06 0.06 0.06 0.05 0.04 0.03 0.03 0.03 0.04
0.02 0.03 0.02 0.02 0.02 0.02 0.02 0.03 0.03 0.03 0.03 0.03 0.02 0.02 0.02 0.02 0.02 0.01 0.01 0.02 0.02 0.02 0.02 0.03 0.03 0.03 0.04 0.04 0.04 0.05 0.05 0.06 0.05 0.04 0.03 0.03 0.02 0.03
MSLP
1015.84 1015.15 1014.34 1013.42 1012.37 1011.18 1009.87 1008.45 1006.94 1005.36 1003.72 1002.03 1000.30 998.54 996.75 994.95 993.17 991.45 989.84 988.41 987.20 986.27 985.63 985.30 985.25 985.44 985.81 986.27 986.74 987.15 987.45 987.61 987.63 987.55 987.42 987.31 987.30 987.47
1015.17 1014.51 1013.78 1012.96 1012.01 1010.92 1009.69 1008.32 1006.81 1005.18 1003.43 1001.59 999.66 997.67 995.63 993.58 991.57 989.65 987.88 986.33 985.07 984.14 983.55 983.31 983.39 983.72 984.23 984.84 985.45 985.98 986.39 986.64 986.76 986.77 986.74 986.74 986.86 987.17
1014.44 1013.80 1013.13 1012.38 1011.52 1010.52 1009.36 1008.04 1006.55 1004.88 1003.06 1001.10 999.01 996.83 994.60 992.35 990.15 988.07 986.17 984.54 983.24 982.31 981.76 981.59 981.75 982.19 982.81 983.53 984.24 984.87 985.38 985.74 985.97 986.10 986.21 986.36 986.65 987.13
1013.72 1013.09 1012.44 1011.73 1010.93 1009.99 1008.89 1007.61 1006.13 1004.45 1002.59 1000.56 998.38 996.08 993.72 991.35 989.04 986.86 984.90 983.22 981.89 980.96 980.43 980.29 980.50 980.98 981.66 982.43 983.20 983.90 984.50 984.96 985.31 985.58 985.85 986.18 986.65 987.31
1013.06 1012.41 1011.75 1011.06 1010.27 1009.36 1008.28 1007.02 1005.56 1003.89 1002.03 999.98 997.78 995.46 993.07 990.68 988.35 986.16 984.19 982.50 981.18 980.25 979.72 979.57 979.77 980.24 980.90 981.67 982.45 983.19 983.83 984.38 984.85 985.27 985.70 986.21 986.86 987.69
1012.48 1011.79 1011.10 1010.37 1009.57 1008.64 1007.56 1006.31 1004.86 1003.23 1001.41 999.41 997.27 995.02 992.71 990.39 988.14 986.02 984.11 982.48 981.19 980.26 979.71 979.53 979.67 980.08 980.67 981.38 982.13 982.85 983.53 984.14 984.70 985.25 985.84 986.51 987.33 988.30
1011.97 1011.24 1010.49 1009.70 1008.84 1007.86 1006.76 1005.50 1004.08 1002.50 1000.76 998.88 996.87 994.78 992.64 990.51 988.43 986.47 984.69 983.15 981.92 981.02 980.45 980.21 980.27 980.57 981.07 981.68 982.35 983.04 983.70 984.35 984.99 985.64 986.35 987.16 988.10 989.18
1011.52 1010.73 1009.91 1009.04 1008.10 1007.06 1005.91 1004.65 1003.26 1001.75 1000.13 998.42 996.62 994.76 992.87 990.99 989.16 987.42 985.84 984.45 983.31 982.45 981.87 981.58 981.55 981.74 982.11 982.62 983.20 983.82 984.46 985.12 985.80 986.53 987.32 988.22 989.23 990.37
1011.10 1010.26 1009.37 1008.42 1007.39 1006.28 1005.08 1003.81 1002.47 1001.06 999.59 998.08 996.53 994.95 993.37 991.79 990.25 988.79 987.44 986.23 985.22 984.42 983.86 983.53 983.43 983.52 983.79 984.18 984.67 985.23 985.84 986.49 987.18 987.94 988.77 989.70 990.74 991.88
1010.70 1009.82 1008.86 1007.83 1006.72 1005.55 1004.32 1003.06 1001.77 1000.47 999.18 997.89 996.61 995.33 994.07 992.82 991.60 990.42 989.32 988.31 987.45 986.75 986.23 985.90 985.76 985.79 985.98 986.30 986.72 987.22 987.79 988.42 989.10 989.86 990.68 991.60 992.60 993.69
1010.33 1009.41 1008.40 1007.30 1006.14 1004.92 1003.68 1002.44 1001.23 1000.06 998.94 997.87 996.86 995.88 994.92 993.98 993.06 992.16 991.30 990.50 989.80 989.21 988.76 988.47 988.33 988.35 988.50 988.78 989.17 989.64 990.18 990.78 991.43 992.15 992.94 993.79 994.71 995.70
1009.99 1009.04 1007.99 1006.86 1005.66 1004.43 1003.20 1002.00 1000.88 999.84 998.89 998.04 997.26 996.54 995.85 995.19 994.53 993.87 993.23 992.62 992.07 991.61 991.26 991.03 990.94 990.98 991.15 991.44 991.82 992.28 992.80 993.37 993.99 994.65 995.36 996.12 996.92 997.77
1009.66 1008.71 1007.65 1006.50 1005.30 1004.08 1002.89 1001.77 1000.74 999.83 999.05 998.37 997.80 997.29 996.82 996.37 995.92 995.46 995.00 994.55 994.14 993.80 993.55 993.41 993.39 993.49 993.72 994.04 994.44 994.91 995.43 995.97 996.55 997.14 997.76 998.40 999.06 999.75
1009.37 1008.42 1007.37 1006.24 1005.07 1003.90 1002.77 1001.74 1000.82 1000.03 999.39 998.86 998.44 998.10 997.79 997.49 997.19 996.87 996.53 996.21 995.92 995.69 995.54 995.49 995.56 995.74 996.03 996.41 996.86 997.35 997.86 998.39 998.91 999.43 999.95 1000.47 1000.99 1001.51
1009.09 1008.17 1007.14 1006.06 1004.95 1003.85 1002.81 1001.88 1001.07 1000.40 999.87 999.47 999.17 998.93 998.73 998.53 998.31 998.08 997.84 997.60 997.39 997.25 997.19 997.23 997.38 997.65 998.01 998.44 998.93 999.44 999.96 1000.46 1000.94 1001.39 1001.81 1002.21 1002.59 1002.97
1008.83 1007.93 1006.97 1005.95 1004.91 1003.91 1002.98 1002.15 1001.45 1000.89 1000.47 1000.16 999.93 999.77 999.62 999.48 999.31 999.13 998.94 998.75 998.61 998.53 998.54 998.65 998.87 999.20 999.61 1000.10 1000.61 1001.14 1001.65 1002.13 1002.56 1002.94 1003.28 1003.57 1003.84 1004.10
1008.57 1007.72 1006.82 1005.88 1004.95 1004.05 1003.23 1002.52 1001.93 1001.46 1001.12 1000.88 1000.71 1000.58 1000.47 1000.35 1000.21 1000.06 999.89 999.75 999.64 999.61 999.67 999.83 1000.10 1000.46 1000.91 1001.41 1001.94 1002.47 1002.96 1003.41 1003.79 1004.12 1004.38 1004.60 1004.78 1004.94
1008.32 1007.53 1006.70 1005.86 1005.03 1004.25 1003.54 1002.94 1002.44 1002.06 1001.79 1001.60 1001.47 1001.37 1001.28 1001.18 1001.06 1000.92 1000.78 1000.67 1000.60 1000.60 1000.68 1000.87 1001.16 1001.54 1001.99 1002.49 1003.00 1003.50 1003.96 1004.37 1004.71 1004.99 1005.21 1005.37 1005.50 1005.60
1008.09 1007.37 1006.62 1005.88 1005.15 1004.48 1003.88 1003.37 1002.97 1002.66 1002.44 1002.29 1002.20 1002.12 1002.05 1001.97 1001.88 1001.77 1001.66 1001.58 1001.55 1001.58 1001.69 1001.90 1002.19 1002.56 1002.99 1003.45 1003.93 1004.38 1004.80 1005.16 1005.46 1005.69 1005.87 1006.01 1006.11 1006.18
1007.89 1007.24 1006.59 1005.94 1005.32 1004.74 1004.24 1003.82 1003.49 1003.24 1003.07 1002.96 1002.89 1002.84 1002.80 1002.75 1002.69 1002.63 1002.57 1002.54 1002.55 1002.61 1002.75 1002.96 1003.24 1003.59 1003.98 1004.39 1004.81 1005.21 1005.56 1005.88 1006.13 1006.34 1006.49 1006.61 1006.70 1006.76
1007.75 1007.17 1006.60 1006.04 1005.52 1005.04 1004.62 1004.27 1003.99 1003.79 1003.66 1003.58 1003.54 1003.52 1003.52 1003.51 1003.51 1003.51 1003.51 1003.54 1003.60 1003.71 1003.87 1004.09 1004.36 1004.67 1005.01 1005.37 1005.71 1006.05 1006.34 1006.60 1006.82 1007.00 1007.14 1007.25 1007.33 1007.39
1007.67 1007.17 1006.68 1006.21 1005.77 1005.36 1005.01 1004.72 1004.49 1004.33 1004.22 1004.17 1004.16 1004.18 1004.21 1004.26 1004.32 1004.38 1004.46 1004.56 1004.68 1004.84 1005.02 1005.25 1005.50 1005.78 1006.07 1006.37 1006.65 1006.92 1007.16 1007.37 1007.56 1007.71 1007.84 1007.94 1008.03 1008.09
1007.65 1007.23 1006.82 1006.43 1006.06 1005.72 1005.43 1005.19 1004.99 1004.86 1004.77 1004.74 1004.75 1004.81 1004.88 1004.99 1005.11 1005.24 1005.39 1005.55 1005.73 1005.93 1006.15 1006.38 1006.62 1006.87 1007.12 1007.36 1007.59 1007.80 1008.00 1008.17 1008.33 1008.47 1008.59 1008.69 1008.78 1008.84
Thickness
5528 5527 5527 5526 5526 5526 5527 5527 5526 5530 5536 5535 5534 5533 5533 5533 5533 5534 5537 5538 5539 5540 5541 5542 5542 5542 5542 5541 5540 5540 5538 5536 5534 5533 5531 5530 5530 5530
5521 5520 5520 5519 5519 5518 5518 5518 5519 5521 5524 5525 5523 5522 5522 5522 5523 5524 5527 5529 5530 5531 5532 5533 5532 5532 5532 5531 5529 5528 5527 5526 5523 5522 5521 5520 5520 5520
5515 5514 5513 5512 5511 5511 5510 5511 5511 5512 5513 5514 5513 5512 5512 5513 5514 5515 5517 5519 5522 5522 5523 5523 5522 5522 5522 5520 5518 5516 5515 5515 5513 5512 5510 5510 5510 5511
5510 5508 5507 5505 5503 5503 5504 5504 5504 5504 5505 5505 5504 5503 5503 5503 5504 5505 5507 5509 5511 5513 5513 5513 5513 5512 5510 5509 5508 5506 5504 5503 5502 5501 5500 5500 5501 5502
5503 5502 5500 5498 5497 5496 5497 5497 5496 5496 5497 5496 5495 5495 5494 5493 5494 5496 5498 5500 5502 5502 5502 5502 5502 5501 5500 5499 5498 5496 5494 5492 5492 5490 5489 5490 5491 5492
5497 5494 5493 5491 5490 5490 5490 5489 5489 5488 5488 5487 5487 5487 5486 5485 5485 5487 5490 5491 5492 5492 5492 5491 5491 5490 5489 5489 5488 5486 5484 5482 5481 5482 5482 5482 5483 5484
5491 5488 5486 5485 5484 5482 5482 5483 5482 5481 5480 5480 5479 5479 5478 5477 5477 5478 5480 5482 5483 5481 5482 5483 5482 5481 5479 5478 5477 5476 5475 5473 5473 5474 5474 5475 5476 5477
5485 5482 5480 5478 5477 5476 5476 5476 5475 5474 5474 5473 5472 5472 5471 5469 5469 5469 5470 5471 5473 5472 5470 5472 5471 5471 5471 5471 5469 5468 5467 5466 5467 5467 5467 5468 5469 5470
5479 5477 5474 5473 5471 5472 5471 5470 5468 5466 5466 5466 5465 5465 5463 5461 5460 5460 5459 5460 5460 5459 5458 5461 5461 5462 5462 5462 5461 5460 5460 5460 5460 5460 5461 5461 5463 5463
5472 5470 5469 5467 5466 5465 5464 5462 5461 5460 5459 5458 5457 5456 5454 5452 5450 5450 5450 5450 5450 5448 5446 5448 5451 5452 5452 5453 5453 5452 5452 5452 5452 5453 5454 5455 5456 5458
5466 5464 5463 5462 5460 5458 5458 5457 5455 5453 5451 5450 5448 5447 5445 5444 5442 5442 5442 5442 5442 5441 5437 5437 5439 5441 5443 5445 5445 5444 5444 5445 5445 5446 5447 5448 5449 5450
5460 5458 5456 5455 5454 5452 5452 5451 5449 5447 5445 5443 5441 5439 5438 5437 5435 5434 5433 5433 5433 5433 5430 5428 5429 5430 5433 5435 5435 5435 5435 5436 5437 5438 5439 5440 5441 5443
5453 5452 5450 5448 5447 5446 5445 5443 5441 5439 5437 5436 5434 5432 5431 5429 5428 5426 5425 5424 5424 5423 5421 5420 5420 5421 5421 5423 5425 5425 5425 5426 5428 5429 5431 5433 5434 5436
5447 5445 5443 5441 5440 5439 5437 5435 5432 5430 5429 5428 5426 5424 5422 5421 5420 5418 5417 5415 5414 5413 5413 5412 5411 5412 5412 5414 5415 5416 5417 5418 5420 5422 5423 5425 5427 5428
5439 5438 5436 5435 5433 5432 5429 5427 5425 5423 5422 5420 5418 5416 5414 5413 5412 5411 5410 5409 5408 5406 5406 5405 5405 5405 5404 5405 5406 5407 5408 5410 5412 5414 5417 5419 5421 5423
5433 5431 5429 5428 5425 5423 5421 5420 5418 5416 5414 5412 5410 5409 5407 5406 5406 5405 5405 5404 5403 5402 5400 5399 5398 5398 5398 5398 5399 5400 5401 5403 5406 5408 5410 5413 5415 5417
5426 5425 5423 5421 5419 5417 5415 5412 5410 5408 5406 5405 5403 5403 5402 5401 5400 5400 5398 5398 5397 5397 5395 5393 5392 5392 5392 5392 5393 5395 5396 5398 5400 5402 5405 5408 5411 5413
5420 5418 5416 5414 5412 5410 5408 5406 5404 5402 5399 5398 5397 5396 5395 5395 5394 5393 5392 5391 5391 5389 5388 5387 5387 5389 5390 5389 5387 5389 5391 5394 5396 5398 5401 5405 5407 5409
5412 5411 5409 5407 5405 5403 5401 5399 5397 5394 5392 5391 5390 5390 5389 5389 5388 5387 5387 5385 5384 5383 5381 5381 5381 5383 5386 5387 5385 5383 5385 5389 5392 5395 5397 5399 5402 5404
5405 5403 5401 5399 5397 5395 5394 5392 5390 5388 5386 5386 5385 5384 5383 5383 5382 5381 5380 5379 5378 5377 5376 5375 5375 5375 5377 5378 5379 5379 5381 5384 5387 5390 5392 5395 5398 5400
5397 5395 5393 5391 5390 5388 5387 5385 5384 5382 5381 5380 5379 5378 5378 5377 5377 5376 5374 5373 5372 5372 5372 5371 5369 5369 5370 5372 5375 5378 5379 5380 5382 5384 5388 5392 5395 5398
5389 5388 5386 5385 5383 5382 5381 5379 5378 5377 5376 5375 5374 5373 5372 5372 5371 5370 5369 5367 5367 5366 5365 5365 5365 5367 5369 5371 5372 5374 5376 5378 5380 5382 5385 5387 5389 5393
5381 5380 5379 5378 5377 5376 5375 5374 5373 5372 5371 5370 5369 5368 5368 5367 5366 5365 5363 5362 5362 5361 5361 5362 5363 5364 5365 5366 5368 5370 5372 5375 5379 5381 5383 5385 5387 5389